Weather History for Nueva Ocotepeque, Honduras

Change the Weather History Date:

Monday, September 30, 2013

  Actual Average (MHTG) Record (MHTG)
Temperature  
Mean Temperature 76 °F -  
Max Temperature 83 °F 80 °F 86 °F (1998)
Min Temperature 68 °F 63 °F 60 °F (1998)
Cooling Degree Days 10    
Growing Degree Days 26 (Base 50)    
Moisture  
Dew Point 69 °F    
Average Humidity 82    
Maximum Humidity 100    
Minimum Humidity 45    
Precipitation  
Precipitation 0.00 in - - ()
Sea Level Pressure  
Sea Level Pressure 29.87 in    
Wind  
Wind Speed 4 mph ()    
Max Wind Speed 14 mph    
Max Gust Speed -    
Visibility 6.2 miles    
Events Rain    
Averages and records for this station are not official NWS values.
T = Trace of Precipitation, MM = Missing Value Source: Averaged Metar Reports

Daily Weather History Graph

Daily Weather History Graph

Search for Another Location

Airport:

Trip Planner

Search our weather history database for the weather conditions in past years. The results will help you decide how hot, cold, wet, or windy it might be!

Date:

Astronomy

Sep. 30, 2013 Rise Set
Actual Time 5:40 AM CST 5:40 PM CST
Civil Twilight 5:18 AM CST 6:01 PM CST
Nautical Twilight 4:53 AM CST 6:26 PM CST
Astronomical Twilight 4:29 AM CST 6:51 PM CST
Moon 1:53 AM CST (9/30) 2:39 PM CST (9/30)
Length of Visible Light 12h 43m
Length of Day
12h 00m
Waning Crescent, 18% of the Moon is Illuminated
Sep 30
Waning Crescent
Oct 4
New
Oct 11
First Quarter
Oct 18
Full
Oct 26
Last Quarter

Hourly Weather History & Observations

Time (CST) Temp. Heat Index Dew Point Humidity Pressure Visibility Wind Dir Wind Speed Gust Speed Precip Events Conditions
12:58 AM 71.1 °F - 70.9 °F 99% 29.86 in 6.2 mi NNW 8.1 mph - N/A   Clear
1:58 AM 70.9 °F - 70.7 °F 99% 29.85 in 6.2 mi NE 1.2 mph - N/A   Clear
2:58 AM 70.2 °F - 69.8 °F 99% 29.85 in 6.2 mi ENE 3.5 mph - N/A   Clear
3:58 AM 68.4 °F - 68.0 °F 99% 29.86 in 6.2 mi South 3.5 mph - N/A   Clear
4:48 AM 69.8 °F - 68.0 °F 94% 29.98 in 6.2 mi ENE 2.3 mph - N/A   Mostly Cloudy
4:58 AM 69.1 °F - 68.2 °F 97% 29.87 in 6.2 mi ENE 2.3 mph - 0.00 in   Mostly Cloudy
5:03 AM 69.8 °F - 68.0 °F 94% 29.98 in 6.2 mi ENE 2.3 mph - N/A   Overcast
5:13 AM 69.8 °F - 68.0 °F 94% 29.98 in 6.2 mi ENE 3.5 mph - N/A Rain Light Rain
5:18 AM 69.8 °F - 68.0 °F 94% 29.98 in 6.2 mi NE 2.3 mph - N/A Rain Light Rain
5:26 AM 68.0 °F - 68.0 °F 100% 29.98 in 6.2 mi ENE 3.5 mph - N/A   Mostly Cloudy
5:31 AM 68.0 °F - 68.0 °F 100% 29.98 in 6.2 mi ENE 3.5 mph - N/A   Scattered Clouds
5:58 AM 68.7 °F - 68.4 °F 99% 29.88 in 6.2 mi Calm Calm - 0.00 in   Clear
6:58 AM 69.3 °F - 68.9 °F 99% 29.89 in 6.2 mi NW 1.2 mph - N/A   Clear
7:58 AM 71.2 °F - 71.1 °F 99% 29.91 in 6.2 mi North 1.2 mph - N/A   Partly Cloudy
8:58 AM 74.8 °F - 71.4 °F 89% 29.90 in 6.2 mi North 3.5 mph - N/A   Clear
9:00 AM 75 °F - 68 °F 72% 29.91 in 6 mi North 2.3 mph - -   Haze
9:58 AM 79.0 °F - 70.3 °F 75% 29.88 in 6.2 mi Variable 4.6 mph - N/A   Clear
10:58 AM 81.3 °F 85.4 °F 71.2 °F 71% 29.86 in 6.2 mi Variable 2.3 mph - N/A   Clear
11:58 AM 85.5 °F 88.2 °F 66.9 °F 54% 29.82 in 6.2 mi Variable 2.3 mph - N/A   Scattered Clouds
12:00 PM 81 °F - 63 °F 45% 29.84 in 6 mi NNW 2.3 mph - -   Haze
12:58 PM 86.5 °F 88.4 °F 65.3 °F 49% 29.79 in 6.2 mi NW 5.8 mph - N/A   Partly Cloudy
1:58 PM 88.0 °F 90.7 °F 66.4 °F 49% 29.75 in 6.2 mi NW 6.9 mph - N/A   Clear
2:58 PM 88.0 °F 91.4 °F 67.6 °F 51% 29.74 in 6.2 mi North 10.4 mph - N/A   Clear
3:00 PM 80 °F - 71 °F 67% 29.84 in 6 mi Calm Calm - -   Haze
3:58 PM 87.3 °F 90.9 °F 68.2 °F 53% 29.73 in 6.2 mi NNW 13.8 mph - N/A   Clear
4:58 PM 84.0 °F 87.6 °F 68.7 °F 60% 29.75 in 6.2 mi NNW 13.8 mph - N/A   Clear
5:58 PM 78.8 °F - 69.8 °F 74% 29.80 in 6.2 mi NW 9.2 mph - N/A   Scattered Clouds
6:00 PM 76 °F - 71 °F 78% 29.82 in 6 mi Calm Calm - -   Haze
6:58 PM 77.9 °F - 69.6 °F 76% 29.84 in 6.2 mi NW 13.8 mph - N/A   Mostly Cloudy
7:58 PM 77.2 °F - 69.6 °F 77% 29.88 in 6.2 mi North 4.6 mph - N/A   Clear
8:58 PM 72.9 °F - 69.8 °F 90% 29.90 in 6.2 mi West 2.3 mph - N/A   Partly Cloudy
9:58 PM 73.6 °F - 70.2 °F 89% 29.90 in 6.2 mi Variable 4.6 mph - N/A   Mostly Cloudy
10:58 PM 72.3 °F - 71.1 °F 96% 29.90 in 6.2 mi NW 4.6 mph - N/A   Mostly Cloudy
11:58 PM 71.1 °F - 69.1 °F 93% 29.87 in 6.2 mi North 3.5 mph - N/A   Scattered Clouds